Regional Weather Roundup
Issued by NWS

Home | Current Version | Previous Version | Text Only | Print | Product List | Glossary On
Versions: 1 2 3 4 5 6 7 8 9 10 11 12 13 14 15 16 17 18 19 20 21 22 23 24 25 26 27 28 29 30 31 32 33 34 35 36 37 38 39 40 41 42 43 44 45 46 47 48 49 50
000
ASUS44 KFWD 291415
RWRTX
NORTH TEXAS HOURLY WEATHER ROUNDUP
NATIONAL WEATHER SERVICE FORT WORTH TX
900 AM CDT SUN MAY 29 2016

NOTE: "FAIR" INDICATES FEW OR NO CLOUDS BELOW 12,000 FEET WITH NO
SIGNIFICANT WEATHER AND/OR OBSTRUCTIONS TO VISIBILITY.

TXZ118-119-291500-
DALLAS/FORT WORTH METROPLEX

CITY           SKY/WX    TMP DP  RH WIND       PRES   REMARKS
DFW AIRPORT    CLOUDY    71  66  84 N8        30.08F
DALLAS LOVE    PTSUNNY   70  66  87 S5        30.09F
FTW MEACHAM    CLOUDY    73  64  73 NW5       30.08F
DAL-EXECUTIVE  CLOUDY    69  64  84 E6        30.08F
FTW-ALLIANCE   PTSUNNY   71  64  78 NE5       30.09F
FTW-NAS-JRB    CLOUDY    71  65  81 N7        30.09F
FTW-SPINKS     SUNNY     70  64  83 CALM      30.10S
ARLINGTON      CLOUDY    72  66  81 E7        30.08F
GRAND PRAIRIE  SUNNY     68  68 100 E5        30.10S
ADDISON        PTSUNNY   72  64  78 CALM      30.09F
MESQUITE       SUNNY     70  64  83 CALM      30.10S
LANCASTER      CLOUDY    69  63  79 S3        30.11R
$$

TXZ091>094-102>105-117-120-121-131>134-291500-
NORTH CENTRAL TEXAS

CITY           SKY/WX    TMP DP  RH WIND       PRES   REMARKS
SHRMAN/DENISON PTSUNNY   74  49  40 S30G36    30.08F
GAINESVILLE    CLOUDY    74  56  53 S16G24    30.10R
BOWIE          PTSUNNY   71  58  63 SE7       30.09R
BRIDGEPORT     CLOUDY    68  63  82 SE8       30.10S
DECATUR        CLOUDY    71  58  65 SE6       30.09S
DENTON         CLOUDY    70  64  81 E3        30.09F
MCKINNEY       LGT RAIN  70  62  76 N12       30.09F
GREENVILLE     PTSUNNY   72  61  68 S5        30.12S
ROCKWALL       CLOUDY    71  64  77 SW3       30.09R
TERRELL        PTSUNNY   72  62  71 CALM      30.12R
WAXAHACHIE     CLOUDY    71  68  88 SE6       30.11F
CLEBURNE       CLOUDY    70  66  88 E8        30.09S
GRANBURY       CLOUDY    70  64  82 CALM      30.10S
$$

TXZ083>090-098>101-113>116-127>130-139>142-154-155-291500-
WESTERN NORTH TEXAS

CITY           SKY/WX    TMP DP  RH WIND       PRES   REMARKS
WICHITA FALLS  MOSUNNY   75  57  53 SE7       30.09R
WF-KICKAPOO    MOSUNNY   76  57  52 S10       30.10R
VERNON         SUNNY     72  53  50 S6        30.11S
ABILENE        CLOUDY    68  63  84 SE9       30.12R
ABILENE-DYESS  MOSUNNY   70  61  71 SE5       30.11R
BRECKENRIDGE   CLOUDY    70  60  70 SE10      30.09S
GRAHAM         MOSUNNY   71  62  73 E9        30.08S
MINERAL WELLS  CLOUDY    69  61  75 E3        30.07F
STEPHENVILLE   CLOUDY    66  61  84 CALM      30.12S
COMANCHE       CLOUDY    69  66  91 E7        30.09S
BROWNWOOD      CLOUDY    72  64  78 S5        30.08R
COLEMAN        PTSUNNY   73  61  67 CALM      30.10R
$$

TXZ143>147-156>162-174-175-291500-
CENTRAL TEXAS

CITY           SKY/WX    TMP DP  RH WIND       PRES   REMARKS
WACO           PTSUNNY   74  62  66 N12       30.11F
WACO-TSTC      SUNNY     75  64  69 N9        30.11F
WACO-MCGREGOR  CLOUDY   N/A N/A N/A N8          N/A
HILLSBORO      CLOUDY    72  64  77 E6        30.12F
CORSICANA      MOSUNNY   79  72  79 N5        30.13F
MEXIA          CLOUDY    75  73  96 W7        30.12S
HEARNE         CLOUDY    76  73  91 CALM      30.10S
CAMERON        CLOUDY    75  71  85 N8        30.09R
TEMPLE         MOSUNNY   72  66  81 N15       30.12R
KILLEEN        MOSUNNY   72  64  76 N14       30.12R
KILLEEN-SKYLRK CLOUDY    72  66  81 N12       30.12R
FORT HOOD      MOSUNNY   70  65  85 NE15      30.10R
GATESVILLE     MOSUNNY   72  63  73 E5        30.14S
HAMILTON       CLOUDY    68  63  84 SE7       30.10F
LAMPASAS       MOSUNNY   73  67  82 N9        30.13S
$$

TXZ095>097-106>112-122>126-135>138-148>153-164>167-291500-
EAST TEXAS

CITY           SKY/WX    TMP DP  RH WIND       PRES   REMARKS
PARIS          CLOUDY    75  64  69 W6        30.12R
SULPHUR SPRNGS MOSUNNY   78  63  59 CALM      30.14R
MOUNT PLEASANT MOSUNNY   78  73  86 W7        30.13R
GILMER         MOSUNNY   76  72  87 CALM      30.12R
MINEOLA        PTSUNNY   77  73  88 SW6       30.13R
TYLER          CLOUDY    76  72  87 SW7       30.13R
LONGVIEW       PTSUNNY   77  73  87 VRB6      30.11R
MARSHALL       CLOUDY    75  71  86 CALM      30.14R
ATHENS         CLOUDY    73  73 100 CALM      30.12S
PALESTINE      CLOUDY    74  74  98 CALM      30.15R
JACKSONVILLE   MOSUNNY   75  73  92 W3        30.15S
HENDERSON      CLOUDY    74  72  91 W5        30.14S
CENTER         FAIR      77  75  95 CALM      30.12R
NACOGDOCHES    CLOUDY    72  70  94 CALM      30.13R
LUFKIN         CLOUDY    71  70  96 E3        30.12R
$$

SUPPLEMENTAL OBSERVATIONS (CENTRAL)

CITY           SKY/WX    TMP DP  RH WIND       PRES   REMARKS
LAKE TEXOMA      N/A     73  57  56 E3          N/A
CADDO GRASSLND   N/A     79  63  57 SE2         N/A
PAT MAYSE LAKE   N/A     77  70  78 S5          N/A
GREENVILLE       N/A    N/A N/A N/A E2          N/A
CEDAR HILL       N/A     72  66  83 N2          N/A
ATHENS           N/A     75  72  88 SW2         N/A
LAKE LIMESTONE   N/A     75  73  94 NE5         N/A
MCGREGOR         N/A     72  64  78 NE9         N/A
TEMPLE           N/A     75  68  78 VRB3G15     N/A
$$

SUPPLEMENTAL OBSERVATIONS (WEST)

CITY           SKY/WX    TMP DP  RH WIND       PRES   REMARKS
MILLERS CREEK    N/A    N/A N/A N/A S10         N/A
POSSUM KINGDOM   N/A     70  63  78 E7          N/A
LBJ GRASSLAND    N/A     72  63  73 VRB2G22     N/A
GRANBURY         N/A     70  63  78 N2          N/A
COMANCHE         N/A     70  63  78 E7          N/A
HAMBY            N/A     70  63  78 SE7         N/A
IVIE RESERVOIR   N/A     75  63  64 SE9G17      N/A
COLORADO BEND    N/A     77  66  69 S8          N/A
$$

SUPPLEMENTAL OBSERVATIONS (EAST)

CITY           SKY/WX    TMP DP  RH WIND       PRES   REMARKS
CLARKSVILLE      N/A     79  73  83 CALM        N/A
LINDEN           N/A     79  72  78 W7          N/A
CADDO LAKE       N/A     81  73  78 SW1         N/A
GILMER           N/A     79  72  78 W7          N/A
HENDERSON        N/A     75  72  88 W6          N/A
S SABINE NF      N/A     79  72  78 E1          N/A
$$

SUPPLEMENTAL OBSERVATIONS ARE A COLLECTION OF AUTOMATED INSTRUMENTS
THAT ARE MAINTAINED BY A VARIETY OF FEDERAL AND STATE AGENCIES.
CERTAIN ELEMENTS...SUCH AS HUMIDITY VALUES AND SUSTAINED WIND
SPEEDS...MAY BE APPROXIMATED.





USA.gov is the U.S. government's official web portal to all federal, state and local government web resources and services.